Orbital Elements at Epoch 2459200.5 (2020-Dec-17.0) TDB
Reference: JPL 18 (heliocentric ecliptic J2000)
Element | Value | Uncertainty (1-sigma) | Units |
e | .2082126227157788 | 3.9876e-08 | |
a | 2.374675167650449 | 9.5253e-09 | au |
q | 1.880237822895917 | 9.8282e-08 | au |
i | 3.556041352940036 | 4.4351e-06 | deg |
node | 116.0468933461957 | 7.7868e-05 | deg |
peri | 210.1872928290923 | 7.8914e-05 | deg |
M | 98.69790724070634 | 1.4517e-05 | deg |
tp | 2458834.053830436517 (2019-Dec-16.55383044) | 5.2807e-05 | TDB |
period | 1336.610113942167 3.66 | 8.0421e-06 2.202e-08 | d yr |
n | .269338078654982 | 1.6206e-09 | deg/d |
Q | 2.869112512404981 | 1.1509e-08 | au |
|
| | Orbit Determination Parameters
Additional Information
|